[[{"header":{"parameterUnit":"m.s-1","parameterCategory":1,"la1":30.2991,"la2":30.254,"lo1":-89.0895,"lo2":-89.0444,"dx":0.0017,"dy":0.0017,"nx":28,"ny":28,"refTime":"2022-11-03T15:00:00:Z","depth":0,"parameterNumber":2,"parameterNumberName":"U-component_of_WINDS"},"data":[0,0,0,0,0,0,0,0,0,0,0,0,0,0,0,0,0,0,0,0,0,0,0,0,0,0,0,0,0,0,0,0,0,0,0,0,0,0,0,0,0,0,0,0,0,0,0,0,0,0,0,0,0,0,0,0,0,0,-3.0983,-3.0984,0,-3.1074,-3.1075,-3.1076,-3.108,-3.1079,-3.1078,-3.1077,-3.1171,-3.1174,-3.1178,0,0,0,0,0,0,0,0,0,0,0,0,0,-3.0813,-3.0816,-3.0983,-3.0984,-3.0985,-3.1074,-3.1075,-3.1076,-3.1081,-3.1079,-3.1078,-3.1077,-3.117,-3.1174,-3.1178,0,0,0,0,0,0,0,0,0,0,0,0,0,-3.0894,-3.0817,-3.0983,-3.0998,-3.1,-3.1074,-3.1075,-3.1077,-3.1081,-3.1079,-3.1078,-3.1076,-3.1168,-3.1173,-3.1179,-3.1243,0,0,-3.1195,-3.1197,0,0,0,0,0,0,0,0,-3.0889,-3.09,-3.0995,-3.0997,-3.1,-3.1064,-3.105,-3.1133,-3.1081,-3.105,-3.1077,-3.1075,-3.1137,-3.1144,-3.1165,-3.1247,-3.1252,-3.1195,-3.1198,-3.12,-3.1202,0,0,0,0,0,0,0,-3.0883,-3.0896,-3.1019,-3.0996,-3.0999,-3.1,-3.101,-3.1065,-3.1101,-3.1053,-3.1053,-3.1064,-3.1138,-3.116,-3.1167,-3.1253,-3.1195,-3.12,-3.1203,-3.1205,-3.1393,-3.1395,0,0,0,0,0,0,-3.0875,-3.0891,-3.1016,-3.1022,-3.0939,-3.1005,-3.1016,-3.1045,-3.1101,-3.1108,-3.1065,-3.1064,-3.1152,-3.1161,-3.1171,-3.1249,-3.12,-3.1205,-3.1208,-3.1391,-3.1393,-3.1395,0,0,0,0,0,0,-3.0871,-3.0886,-3.1012,-3.0957,-3.0973,-3.1009,-3.1043,-3.1048,-3.107,-3.111,-3.1117,-3.1081,-3.1151,-3.1163,-3.1225,-3.1253,-3.1208,-3.1212,-3.1389,-3.1392,-3.1394,-3.1407,0,0,0,0,0,0,-3.0866,-3.0885,-3.0909,-3.0957,-3.0976,-3.1065,-3.1044,-3.1051,-3.1079,-3.1078,-3.1127,-3.1134,-3.1151,-3.1217,-3.123,-3.1259,-3.1217,-3.1387,-3.139,-3.1393,-3.1405,-3.141,-3.1415,0,0,0,0,0,-3.086,-3.0909,-3.091,-3.0925,-3.1007,-3.1067,-3.1077,-3.1096,-3.1081,-3.1106,-3.1132,-3.1132,-3.1248,-3.1223,-3.1238,-3.1269,-3.1385,-3.1389,-3.1393,-3.1402,-3.1409,-3.1415,0,0,0,0,0,0,-3.0864,-3.0916,-3.0918,-3.0984,-3.1021,-3.1067,-3.1099,-3.1103,-3.1144,-3.1142,-3.1163,-3.1174,-3.1235,-3.1259,-3.1231,-3.1334,-3.1315,-3.1322,-3.1317,-3.1324,-3.1329,-3.1321,-3.1221,0,0,0,0,0,-3.0872,-3.0916,-3.0959,-3.1013,-3.1032,-3.1063,-3.1089,-3.11,-3.1139,-3.1155,-3.1185,-3.1224,-3.1269,-3.1298,-3.1341,-3.1409,-3.1419,-3.1437,-3.1443,-3.1447,-3.1452,-3.1489,-3.1498,-3.1409,-3.1409,-3.1409,0,0,-3.089,-3.0924,-3.095,-3.1015,-3.1045,-3.1089,-3.1076,-3.1123,-3.1157,-3.1162,-3.1222,-3.1246,-3.129,-3.1355,-3.1385,-3.1376,-3.1479,-3.1452,-3.1455,-3.1458,-3.1494,-3.1503,-3.151,-3.1412,-3.1411,-3.1411,0,0,-3.0945,-3.0975,-3.1023,-3.1054,-3.1099,-3.112,-3.1131,-3.1178,-3.1194,-3.1254,-3.1259,-3.13,-3.1377,-3.1408,-3.1434,-3.1502,-3.1503,-3.1515,-3.1542,-3.1578,-3.1585,-3.1591,-3.1615,-3.1623,-3.1521,-3.1521,-3.1521,0,-3.0961,-3.1028,-3.1048,-3.1096,-3.1124,-3.1132,-3.1181,-3.1209,-3.1267,-3.1286,-3.1276,-3.1373,-3.1403,-3.1475,-3.1491,-3.1513,-3.1526,-3.1509,-3.1582,-3.1589,-3.1595,-3.1618,-3.1626,-3.1522,-3.1522,-3.1522,-3.1522,0,-3.1046,-3.1092,-3.1126,-3.1181,-3.1214,-3.1262,-3.1289,-3.1319,-3.1328,-3.135,-3.1411,-3.1448,-3.1499,-3.1517,-3.1527,-3.1591,-3.1584,-3.1578,-3.1558,-3.1604,-3.1626,-3.1635,-3.1524,-3.1524,-3.1523,-3.1523,0,0,-3.1104,-3.117,-3.1182,-3.1207,-3.1258,-3.1295,-3.1344,-3.1394,-3.1419,-3.1459,-3.15,-3.1566,-3.156,-3.159,-3.1603,-3.1635,-3.1685,-3.1625,-3.1626,-3.1634,-3.1758,-3.1761,-3.177,-3.1687,-3.1689,-3.169,-3.1753,0,-3.1163,-3.125,-3.1269,-3.1344,-3.1387,-3.1395,-3.1438,-3.1474,-3.1496,-3.1536,-3.156,-3.1606,-3.1596,-3.1614,-3.1646,-3.1672,-3.171,-3.1668,-3.1725,-3.1727,-3.1712,-3.1782,-3.1785,-3.1843,-3.1762,-3.1764,-3.1765,0,-3.1244,-3.1286,-3.1364,-3.141,-3.1429,-3.1467,-3.1514,-3.1552,-3.1594,-3.1608,-3.1641,-3.1651,-3.1702,-3.1681,-3.1752,-3.1723,-3.1748,-3.1764,-3.1767,-3.1772,-3.1747,-3.1787,-3.1862,-3.187,-3.1778,-3.1777,-3.1776,0,-3.1277,-3.1353,-3.141,-3.1431,-3.1486,-3.1512,-3.1537,-3.1577,-3.1606,-3.1647,-3.1666,-3.1714,-3.1739,-3.1776,-3.1799,-3.1781,-3.1868,-3.1849,-3.188,-3.1879,-3.1896,-3.1894,-3.1975,-3.1914,-3.1914,-3.1914,-3.1914,0,-3.1341,-3.1388,-3.1425,-3.146,-3.1514,-3.1536,-3.1589,-3.1613,-3.1649,-3.1688,-3.1699,-3.1736,-3.1764,-3.1806,-3.1824,-3.1879,-3.1891,-3.1903,-3.1907,-3.1902,-3.19,-3.1917,-3.1913,-3.1917,-3.1916,-3.1916,-3.1915,0,-3.1386,-3.1413,-3.1475,-3.1522,-3.1535,-3.1573,-3.1613,-3.1647,-3.167,-3.172,-3.1733,-3.1768,-3.1817,-3.1844,-3.1906,-3.1918,-3.198,-3.1982,-3.1965,-3.1967,-3.1996,-3.1992,-3.2089,-3.2103,-3.2034,-3.2035,-3.2035,0,-3.1424,-3.1461,-3.1512,-3.154,-3.1564,-3.1608,-3.1638,-3.1662,-3.1692,-3.1743,-3.1771,-3.182,-3.1861,-3.1939,-3.197,-3.2018,-3.202,-3.2051,-3.2028,-3.2021,-3.202,-3.2017,-3.202,-3.2055,-3.2055,-3.2056,-3.2056,0,-3.1489,-3.15,-3.1542,-3.1589,-3.1624,-3.1663,-3.17,-3.1722,-3.1752,-3.1786,-3.1836,-3.1868,-3.1931,-3.198,-3.203,-3.2055,-3.2061,-3.2064,-3.2073,-3.2067,-3.2055,-3.2061,-3.1975,-3.2061,-3.2061,-3.206,-3.206,-3.206,-3.1531,-3.1564,-3.1605,-3.1652,-3.1683,-3.1718,-3.1752,-3.1779,-3.1821,-3.1874,-3.1886,-3.1939,-3.198,-3.2047,-3.2074,-3.2116,-3.211,-3.2124,-3.2127,-3.213,-3.2131,-3.205,-3.2125,-3.2125,-3.2125,-3.2125,-3.2125,0,-3.1595,-3.1622,-3.1665,-3.1717,-3.1754,-3.1757,-3.1799,-3.1829,-3.1876,-3.1914,-3.1954,-3.2011,-3.2059,-3.2095,-3.2143,-3.217,-3.2174,-3.2182,-3.218,-3.2185,-3.2134,-3.212,-3.2178,-3.2178,-3.2178,-3.2178,-3.2178,-3.2178,-3.1633,-3.1688,-3.1705,-3.1776,-3.1803,-3.1855,-3.1878,-3.1911,-3.1941,-3.2005,-3.2045,-3.2068,-3.2105,-3.2156,-3.22,-3.221,-3.2227,-3.2234,-3.2244,-3.2195,-3.2189,-3.2183,-3.2171,-3.2238,-3.2238,-3.2291,-3.2292,-3.2292]},{"header":{"parameterUnit":"m.s-1","parameterCategory":1,"la1":30.2991,"la2":30.254,"lo1":-89.0895,"lo2":-89.0444,"dx":0.0017,"dy":0.0017,"nx":28,"ny":28,"refTime":"2022-11-03T15:00:00:Z","depth":0,"parameterNumber":3,"parameterNumberName":"V-component_of_WINDS"},"data":[0,0,0,0,0,0,0,0,0,0,0,0,0,0,0,0,0,0,0,0,0,0,0,0,0,0,0,0,0,0,0,0,0,0,0,0,0,0,0,0,0,0,0,0,0,0,0,0,0,0,0,0,0,0,0,0,0,0,4.3263,4.3264,0,4.34,4.3401,4.3403,4.3411,4.341,4.3408,4.3406,4.3545,4.355,4.3556,0,0,0,0,0,0,0,0,0,0,0,0,0,4.3009,4.3014,4.3263,4.3264,4.3266,4.34,4.3402,4.3403,4.3411,4.3409,4.3408,4.3406,4.3544,4.355,4.3556,0,0,0,0,0,0,0,0,0,0,0,0,0,4.313,4.3015,4.3262,4.3286,4.329,4.3399,4.3402,4.3404,4.3412,4.3409,4.3407,4.3405,4.3542,4.3549,4.3557,4.3651,0,0,4.358,4.3584,0,0,0,0,0,0,0,0,4.3123,4.3139,4.3281,4.3285,4.3289,4.3386,4.3363,4.3487,4.3412,4.3365,4.3406,4.3404,4.3494,4.3506,4.3536,4.3658,4.3664,4.3581,4.3586,4.3589,4.3591,0,0,0,0,0,0,0,4.3115,4.3133,4.3317,4.3283,4.3288,4.3291,4.3305,4.3387,4.3441,4.3369,4.337,4.3386,4.3496,4.3529,4.354,4.3666,4.3581,4.3588,4.3593,4.3596,4.3876,4.3879,0,0,0,0,0,0,4.3102,4.3126,4.3313,4.3321,4.3199,4.3297,4.3313,4.3357,4.344,4.3451,4.3388,4.3386,4.3517,4.3531,4.3545,4.3664,4.3589,4.3596,4.3601,4.3873,4.3876,4.388,0,0,0,0,0,0,4.3096,4.3118,4.3307,4.3224,4.3248,4.3304,4.3353,4.3361,4.3394,4.3455,4.3464,4.3412,4.3516,4.3534,4.3626,4.3669,4.36,4.3607,4.387,4.3874,4.3878,4.3901,0,0,0,0,0,0,4.3089,4.3116,4.3152,4.3225,4.3253,4.3386,4.3356,4.3365,4.3408,4.3406,4.348,4.3489,4.3515,4.3614,4.3634,4.3678,4.3613,4.3866,4.3872,4.3877,4.3896,4.3905,4.3913,0,0,0,0,0,4.308,4.3152,4.3154,4.3176,4.3299,4.3388,4.3404,4.3433,4.3411,4.3448,4.3488,4.3487,4.3661,4.3624,4.3645,4.3693,4.3864,4.387,4.3876,4.3893,4.3903,4.3912,0,0,0,0,0,0,4.3082,4.3162,4.3165,4.3263,4.3319,4.3389,4.3437,4.3442,4.3505,4.3501,4.3534,4.355,4.3642,4.3676,4.3634,4.3791,4.376,4.3771,4.3765,4.3776,4.3783,4.3774,4.3619,0,0,0,0,0,4.3094,4.3159,4.3226,4.3306,4.3334,4.3381,4.342,4.3438,4.3497,4.352,4.3566,4.3623,4.3691,4.3735,4.38,4.3901,4.3919,4.3945,4.3953,4.3959,4.3969,4.4028,4.4041,4.39,4.39,4.39,0,0,4.3119,4.3171,4.321,4.3307,4.3353,4.3421,4.34,4.3472,4.3524,4.3531,4.3622,4.3658,4.3724,4.3822,4.3867,4.3853,4.4012,4.3967,4.3972,4.3978,4.4036,4.4049,4.4061,4.3905,4.3904,4.3903,0,0,4.32,4.3244,4.3318,4.3364,4.3434,4.3465,4.3483,4.3554,4.3578,4.367,4.3678,4.3739,4.3854,4.3903,4.3942,4.4045,4.4048,4.4065,4.4108,4.4165,4.4176,4.4186,4.4226,4.4239,4.4074,4.4074,4.4074,0,4.3222,4.3325,4.3354,4.3428,4.3472,4.3483,4.3559,4.3602,4.3689,4.372,4.3703,4.385,4.3895,4.4006,4.4032,4.4062,4.4085,4.4057,4.4172,4.4183,4.4193,4.423,4.4245,4.4076,4.4076,4.4075,4.4075,0,4.335,4.3422,4.3472,4.3558,4.3608,4.3681,4.3723,4.377,4.3784,4.3817,4.3912,4.3967,4.4045,4.4072,4.4086,4.4186,4.4176,4.4165,4.4135,4.4207,4.4244,4.4258,4.4079,4.4078,4.4077,4.4077,0,0,4.3435,4.3539,4.3557,4.3598,4.3677,4.3733,4.3808,4.3886,4.3926,4.3986,4.4052,4.4151,4.4143,4.4187,4.4206,4.4257,4.4338,4.4241,4.4243,4.4259,4.4456,4.4465,4.4481,4.434,4.4343,4.4345,4.4451,0,4.3527,4.3661,4.3692,4.3808,4.3876,4.3889,4.3955,4.4011,4.4045,4.4108,4.4145,4.4216,4.4198,4.4226,4.4276,4.4318,4.4379,4.431,4.4403,4.4406,4.4388,4.4499,4.4508,4.4605,4.4465,4.4468,4.4469,0,4.3651,4.3716,4.384,4.3913,4.3943,4.4002,4.4077,4.4137,4.4202,4.4223,4.4275,4.4289,4.437,4.4335,4.4448,4.4401,4.4441,4.4467,4.4471,4.4482,4.4443,4.4515,4.4637,4.4652,4.4491,4.449,4.4488,0,4.3704,4.3822,4.3913,4.3946,4.4033,4.4075,4.4113,4.4176,4.4222,4.4288,4.4319,4.4392,4.4433,4.4491,4.4526,4.4497,4.4636,4.4604,4.4658,4.4657,4.4687,4.4685,4.4819,4.471,4.471,4.4709,4.4709,0,4.3804,4.3879,4.3938,4.3994,4.408,4.4114,4.4199,4.4237,4.4293,4.4357,4.4372,4.4432,4.4474,4.454,4.4568,4.4659,4.4676,4.4697,4.4704,4.4697,4.4694,4.4724,4.4719,4.4713,4.4712,4.4712,4.4711,0,4.3878,4.3919,4.4019,4.4094,4.4115,4.4175,4.424,4.4296,4.433,4.4412,4.4433,4.4487,4.4567,4.4607,4.4705,4.4724,4.4827,4.4828,4.4805,4.4809,4.4861,4.4857,4.502,4.5044,4.4917,4.4918,4.4919,0,4.3939,4.3998,4.4081,4.4125,4.4165,4.4236,4.4284,4.4321,4.437,4.445,4.4497,4.4577,4.4643,4.4769,4.4818,4.4894,4.4899,4.4951,4.491,4.4902,4.4903,4.49,4.4907,4.4958,4.496,4.496,4.4961,0,4.4046,4.4065,4.4133,4.421,4.4267,4.4329,4.439,4.4425,4.4473,4.4527,4.4609,4.4661,4.4763,4.4843,4.4923,4.4963,4.4971,4.4974,4.4991,4.4985,4.4971,4.4982,4.4827,4.497,4.4969,4.4969,4.4968,4.4968,4.4117,4.4172,4.4239,4.4316,4.4366,4.4424,4.4481,4.4523,4.4592,4.4679,4.4696,4.4784,4.485,4.4959,4.5002,4.5071,4.506,4.5084,4.5091,4.5096,4.51,4.4958,4.5086,4.5085,4.5085,4.5085,4.5085,0,4.4227,4.4272,4.4342,4.4428,4.4489,4.4492,4.456,4.4611,4.4688,4.475,4.4816,4.4911,4.499,4.5046,4.5126,4.5172,4.5178,4.5192,4.519,4.52,4.5104,4.5083,4.5186,4.5186,4.5186,4.5186,4.5186,4.5186,4.4291,4.4385,4.4412,4.4531,4.4575,4.4661,4.4701,4.4755,4.4804,4.4911,4.4977,4.5013,4.5074,4.5159,4.5232,4.5247,4.5277,4.5291,4.5306,4.5216,4.5206,4.5196,4.5176,4.5297,4.5297,4.5396,4.5397,4.5398]}]]